Location: Angwan Shehu
(11.2514°N, 7.4613°E)
Time: 03:47:32
(UTC+00:00)

Vanguard 3 - Pass Details

Date: 04 August 2021
Orbit: 510 x 3260 km, 33.3° (Epoch: 16 September)

Event Time Altitude Azimuth Distance (km) Brightness Sun altitude
Rises 23:15:17 0° 302° (WNW) 7,180 12.2 -61.3°
Reaches altitude 10° 23:20:06 10° 302° (WNW) 6,196 11.8 -61.5°
Enters shadow 23:30:09 38° 298° (WNW) 4,157 10.6 -61.7°
